Regional Weather Roundup
Issued by NWS Albany, NY

Home | Current Version | Previous Version | Graphics & Text | Print | Product List | Glossary On
Versions: 1 2 3 4 5 6 7 8 9 10 11 12 13 14 15 16 17 18 19 20 21 22 23 24 25 26 27 28 29 30 31 32 33 34 35 36 37 38 39 40 41 42 43 44 45 46 47 48 49 50
000
ASUS41 KALY 190310
RWRALY

NEW YORK STATE HOURLY WEATHER ROUNDUP
NATIONAL WEATHER SERVICE ALBANY NY
1100 PM EDT SAT APR 18 2015

NOTE: "FAIR" INDICATES FEW OR NO CLOUDS BELOW 12,000 FEET WITH NO
SIGNIFICANT WEATHER AND/OR NO OBSTRUCTIONS TO VISIBILITY.

NYZ032-033-038>043-046>054-057>066-NYZ062>081-190400-
EAST


CITY           SKY/WX    TMP DP  RH WIND       PRES   REMARKS
ALBANY         FAIR      55  20  25 N10       30.10R
GLENS FALLS    CLEAR     43  32  65 CALM      30.13R
POUGHKEEPSIE   CLEAR     61  29  29 N6        30.05R
NEWBURGH       CLEAR     61  28  29 NW9       30.06R
MONTGOMERY     CLEAR     60  25  26 NW7       30.06R
WHITE PLAINS   CLEAR     62  27  26 N14       30.02R
ISLIP          PTCLDY    61  31  32 N12       30.01R
NEW YORK CITY  PTCLDY    66  27  23 N10       30.01R
CENTRAL PARK   PTCLDY    67  25  20 VRB5      30.05R
$$

NYZ005>009-017-018-044>046-055-056-190400-
CENTRAL


CITY           SKY/WX    TMP DP  RH WIND       PRES   REMARKS
FULTON         CLEAR     46  29  51 NE6       30.17R
SYRACUSE       CLEAR     49  27  42 N5        30.16R
ROME           CLEAR     50  26  39 N10       30.15R
ELMIRA         CLEAR     42  30  62 CALM      30.14S
BINGHAMTON     CLEAR     49  26  41 N8        30.12S
MONTICELLO     CLEAR     52  25  35 NW7       30.11R
$$

NYZ026>034-041>043-190400-
NORTH


CITY           SKY/WX    TMP DP  RH WIND       PRES   REMARKS
WATERTOWN      CLEAR     46  28  49 NE8       30.19R
FORT DRUM      NOT AVBL
MASSENA        CLEAR     43  28  55 N8        30.23R
SARANAC LAKE   CLEAR     40  27  59 N8G17     30.14R WCI  34
PLATTSBURGH    PTCLDY    44  32  62 N15G28    30.17R
$$

NYZ001>004-010>016-019>021-190400-
WEST


CITY           SKY/WX    TMP DP  RH WIND       PRES   REMARKS
NIAGARA FALLS  PTCLDY    47  31  53 N8        30.18R
BUFFALO        PTCLDY    51  26  37 NE9       30.17R
DUNKIRK        CLEAR     46  28  49 NE5       30.16S
JAMESTOWN      CLEAR     48  19  32 N9        30.15S
WELLSVILLE     CLEAR     48  23  37 N7        30.16R
ROCHESTER      CLEAR     50  24  36 N7        30.18R
PENN YAN       CLEAR     51  23  33 N3        30.16R
$$

             KEY
       WCI = WIND CHILL INDEX
       VSB = VISIBILITY
       HX  = HEAT INDEX
$$


USA.gov is the U.S. government's official web portal to all federal, state and local government web resources and services.